Regional Weather Roundup
Issued by NWS

Home | Current Version | Previous Version | Text Only | Print | Product List | Glossary Off
Versions: 1 2 3 4 5 6 7 8 9 10 11 12 13 14 15 16 17 18 19 20 21 22 23 24 25 26 27 28 29 30 31 32 33 34 35 36 37 38 39 40 41 42 43 44 45 46 47 48 49 50

000
ASUS43 KMKX 211011
RWRWI

WISCONSIN REGIONAL WEATHER ROUNDUP
NATIONAL WEATHER SERVICE MILWAUKEE/SULLIVAN WI
500 AM CDT THU AUG 21 2014

NOTE: "FAIR" INDICATES FEW OR NO CLOUDS BELOW 12,000 FEET WITH NO
SIGNIFICANT WEATHER AND/OR OBSTRUCTIONS TO VISIBILITY.

WIZ001-002-006>008-014>016-023>028-211100-
NORTHWEST WISCONSIN

CITY           SKY/WX    TMP DP  RH WIND       PRES   REMARKS
SUPERIOR ARPT  FOG       60  60 100 NE8       29.91R VSB 3/4
ASHLAND        FOG       58  58 100 NE3       29.92F VSB 1/4
HAYWARD        MOCLDY    62  60  93 CALM      29.90F
SIREN          CLOUDY    64  61  90 E5        29.86R
RICE LAKE      CLOUDY    64  60  89 E8        29.89S
LADYSMITH      MOCLDY    63  60  92 E8        29.92F
EAU CLAIRE     CLOUDY    66  64  93 E5        29.85F
MENOMONIE      CLOUDY    66  64  91 E7        29.86S
NEW RICHMOND   LGT RAIN  65  64  95 SE5       29.85R
OSCEOLA        LGT RAIN  67  66  95 E5        29.87R
$$

WIZ003>005-009-010-017-018-211100-
NORTH CENTRAL WISCONSIN

CITY           SKY/WX    TMP DP  RH WIND       PRES   REMARKS
WOODRUFF       CLOUDY    62  59  91 SE5       29.96S
RHINELANDER    FOG       59  59 100 SE5       29.96F VSB 1/2
EAGLE RIVER    CLEAR     59  59 100 CALM      29.96S
LAND O LAKES   MOCLDY    60  60 100 CALM      29.97F
PHILLIPS       CLOUDY    58  58  99 E5        29.93S
TOMAHAWK       FOG       51  50  97 CALM      29.95S VSB 1/2
MEDFORD        CLOUDY    61  60  97 E5        29.93S
MERRILL        CLEAR     57  57 100 CALM      29.95R FOG
$$

WIZ029-030-035-036-043>047-211100-
CENTRAL WISCONSIN

CITY           SKY/WX    TMP DP  RH WIND       PRES   REMARKS
WAUSAU         CLOUDY    60  59  96 E7        29.93S
MOSINEE        MOCLDY    59  59 100 E6        29.94F FOG
MARSHFIELD     PTCLDY    63  61  93 E5        29.91F FOG
STEVENS POINT  CLOUDY    60  60  99 E5        29.93F FOG
WAUPACA        CLOUDY    65  63  94 CALM      29.94R FOG
WAUTOMA        MOCLDY    63  62  96 CALM      29.93S
WISC RAPIDS    MOCLDY    64  62  93 E5        29.92F
CAMP DOUGLAS   MOCLDY    66  66 100 E8        29.88F FOG
$$

WIZ011>013-019>022-031-037>040-048>050-211100-
NORTHEAST WISCONSIN

CITY           SKY/WX    TMP DP  RH WIND       PRES   REMARKS
ANTIGO         FOG       60  60 100 CALM      29.96F VSB 1/2
STURGEON BAY   CLOUDY    61  57  88 S3        29.96S VSB 1/4
GREEN BAY      CLEAR     58  58 100 CALM      29.94S FOG
MANITOWOC      MOCLDY    63  63 100 CALM      29.95S FOG
APPLETON       CLEAR     63  61  94 E3        29.95S
CLINTONVILLE   FOG       57  57 100 CALM      29.94S VSB<1/4
OSHKOSH        PTCLDY    64  62  93 E5        29.93F
$$

WIZ032>034-041-042-053>061-211100-
SOUTHWEST WISCONSIN

CITY           SKY/WX    TMP DP  RH WIND       PRES   REMARKS
LA CROSSE      CLOUDY    72  67  84 E7        29.84F
SPARTA         CLOUDY    67  65  92 CALM      29.88F
VIROQUA        CLOUDY    67  67 100 SE8       29.89S
BOSCOBEL       CLOUDY    69  66  90 CALM      29.88F
PRAIRIE DU CHI CLOUDY    71  66  84 E7        29.85F
PLATTEVILLE    CLOUDY    68  66  92 NE13      29.92S
$$

WIZ056-057-062-063-064-067-068-211100-
SOUTH CENTRAL WISCONSIN

CITY           SKY/WX    TMP DP  RH WIND       PRES   REMARKS
BARABOO/DELLS  PTCLDY    64  62  93 E3        29.91F FOG
LONE ROCK      CLOUDY    72  68  87 SE3       29.89F
WATERTOWN      CLOUDY    65  65  99 CALM      29.93F
MADISON        LGT RAIN  70  67  90 S6        29.92S
MIDDLETON      CLOUDY    69  69 100 CALM      29.93S
MONROE         TSTM      68  66  94 E7        29.92F
JANESVILLE     RAIN      70  66  88 S3        29.93R
$$

WIZ051-052-058>065-066-070>072-211100-
SOUTHEAST WISCONSIN

CITY           SKY/WX    TMP DP  RH WIND       PRES   REMARKS
MILWAUKEE      MOCLDY    67  63  87 S5        29.94S
WAUKESHA       CLEAR     63  61  94 CALM      29.96R
MILWAUKEE/TIMM MOCLDY    64  61  88 SE3       29.95S
RACINE         MOCLDY    67  64  90 CALM      29.96R
BURLINGTON     PTCLDY    64  64  99 CALM      29.94S FOG
KENOSHA        PTCLDY    65  65 100 CALM      29.94F
FOND DU LAC    PTCLDY    64  60  87 SE6       29.94S
SHEBOYGAN      FOG       59  58  96 CALM      29.94F VSB 1/4
WEST BEND      PTCLDY    61  59  94 CALM      29.95S FOG
JUNEAU         MOCLDY    65  39  39 S7        29.95R
$$

LSZ147-162-211100-
LAKE SUPERIOR

STATION/POSITION TIME  TEMP    WIND        PRES    WAVE
                       AIR SEA DIR/SP/G            HT/PER
                 (UTC) (F)     (DEG/KT/KT) (MB)    (FT/S)
W MID LAKE BUOY  0950   57 57   90/ 10/ 12 1013.7F   0
DEVILS ISLAND    1000   61      90/ 12/ 13 1013.1F
PORT WING        0940   59      80/  1/  2 1012.5F
SAXON HARBOR     0940   56        CALM     1012.9F
$$

LMZ867-665-643>646-211100-
LAKE MICHIGAN

STATION/POSITION TIME  TEMP    WIND        PRES    WAVE
                       AIR SEA DIR/SP/G            HT/PER
                 (UTC) (F)     (DEG/KT/KT) (MB)    (FT/S)
N MID LAKE BUOY  0950   63 63  180/  2/  2 1014.0F   0
NORTHPORT PIER   0900   65     200/  2/  3 1014.6F
SISTER BAY       0911   65        CALM       N/A
KEWAUNEE LAKESHO 0900   61      CALM  /  1 1013.4F
SHEBOYGAN LAKESH 1000   66 65  120/  3/  3 1014.0F
ATWATER BUOY     0900   68      90/  2/  4 1014.9F
MILWAUKEE LAKESH 0900   68      90/  3/  3   N/A
S MID LAKE BUOY  0950   68 68  100/  6/  6 1013.6R   0
KENOSHA   LAKESH 1000   69      10/  1/  2 1013.2F
$$

TC  - TEMPERATURE IN CELSIUS
VSB - VISIBILITY IN STATUTE MILES
WCI - WIND CHILL INDEX
HX  - HEAT INDEX



USA.gov is the U.S. government's official web portal to all federal, state and local government web resources and services.